Showing default

SPAWAR-CAL-R, 43776

Orbit data source: Space-Track

SPAWAR-CAL-R, 43776 is a payload satellite owned by SPAWAR (US) in SSO that was launched on Mon, 03 Dec 2018 UTC via an FALCON 9 launch vehicle from the Air Force Western Test Range (AFWTR). Payload-class satellites include a variety of spacecraft equipped with specific instruments for various scientific and technological missions. These include communications satellites like Starlink; space stations such as the ISS; scientific satellites like the Hubble; Earth observation satellites from companies like Planet Labs, Umbra, and HawkEye 360; GPS; miniature CubeSats for education and research; and military/defense satellites.

Loading next visibility...
Identifier
43776, 2018-099U
Orbit
SSO
Country
Flag of USUS
Related business
Manufacturer
SPAWAR?
Mission
Operational Defense Calibration
Bus & Motor
CUBESAT 1U, Unknown motor
Mass
1 kg wet, 1 kg dry
Launch date (UTC)
2018-12-03 (8 years ago)
Launch vehicle
FALCON 9
Launch site
Air Force Western Test Range (AFWTR)
Object type
Payload
Rocket body
Debris
Shape & HBR
Box, 0.1 m
Radar Cross Section
0.015 m², Medium (>0.1 m² and < 1m²)

Expand to show TLE details & history
Last TLE update: 2 days ago

TLE from 2 days ago
0 SPAWAR-CAL-R
1 43776U 18099U   26171.07441737  .00001511  00000-0  10836-3 0  9993
2 43776  97.4377 211.3777 0019728 355.2719   4.8319 15.05659717412438
Epoch: 2026-06-20T01:47Z
TLE epoch observation values (Epoch: 2026-06-20T01:47:09.660Z)
Latitude
-0.00002°
Longitude
-83.70681°
Altitude
538.93 km
Speed
7.6 km/s
True Right ascension
14h 05m 30s
True Declination
0° 00' 00"
Sunlit
Object was in full shadow at epoch
Visualization orbit readout
Latitude
Unknown
Longitude
Unknown
Altitude
Unknown
Speed
Unknown
Apparent Right ascension
Unknown
Apparent Declination
Unknown
Sunlit
N/A
Visualization observer readout
Local Sidereal Time
21:37:03
Azimuth
Unknown
Elevation
Unknown
Doppler factor
Unknown
Orbital elements
Apogee altitude
560.129 km
Perigee altitude
532.807 km
Semi-major axis
6,924.605 km
Eccentricity
0.00197
Inclination
97.4377°
RAAN
211.3777°
Arg. of periapsis
355.2719°
True anomaly
4.85099°
Mean anomaly
4.8319°
Eccentric anomaly
4.84144°
Mean motion
3.76661 °/min
Orbital period
95.58 mins
BSTAR
0.00010836
Loading maneuver chart data...
Computing Atmospheric mass density...
Loading historical data...
Loading historical data...
Loading historical data...
Loading historical data...
Loading historical data...
Loading historical data...
Loading historical data...

Documentation

Showing up to 5 results
|